station,date_time,longitude_east,latitude_north,depth,sw_sal,sw_sal_result_value_qualifier,sea_water_temperature,sea_water_temperature_result_value_qualifier,sea_water_pressure,sea_water_pressure_result_value_qualifier,KD_PAR,KD_PAR_result_value_qualifier
CH4-3,2017-01-26T20:30:00Z,-79.22,54.14,2,10.78,,-0.66,,, NC,, NC
CH4-3,2017-01-26T20:45:00Z,-79.22,54.14,2,10.41,,-0.64,,, NC,, NC
CH4-3,2017-01-26T21:00:00Z,-79.22,54.14,2,10.31,,-0.64,,, NC,, NC
CH4-3,2017-01-26T21:15:00Z,-79.22,54.14,2,10.48,,-0.64,,, NC,, NC
CH4-3,2017-01-26T21:30:00Z,-79.22,54.14,2,10.55,,-0.65,,, NC,, NC
CH4-3,2017-01-26T21:45:00Z,-79.22,54.14,2,10.76,,-0.66,,, NC,, NC
CH4-3,2017-01-26T22:00:00Z,-79.22,54.14,2,10.91,,-0.66,,, NC,, NC
CH4-3,2017-01-26T22:15:00Z,-79.22,54.14,2,10.67,,-0.65,,, NC,, NC
CH4-3,2017-01-26T22:30:00Z,-79.22,54.14,2,10.95,,-0.66,,, NC,, NC
CH4-3,2017-01-26T22:45:00Z,-79.22,54.14,2,11.02,,-0.65,,, NC,, NC
CH4-3,2017-01-26T23:00:00Z,-79.22,54.14,2,10.64,,-0.65,,, NC,, NC
CH4-3,2017-01-26T23:15:00Z,-79.22,54.14,2,10.68,,-0.65,,, NC,, NC
CH4-3,2017-01-26T23:30:00Z,-79.22,54.14,2,10.43,,-0.64,,, NC,, NC
CH4-3,2017-01-26T23:45:00Z,-79.22,54.14,2,10.45,,-0.63,,, NC,, NC
CH4-3,2017-01-27T00:00:00Z,-79.22,54.14,2,10.42,,-0.64,,, NC,, NC
CH4-3,2017-01-27T00:15:00Z,-79.22,54.14,2,9.84,,-0.62,,, NC,, NC
CH4-3,2017-01-27T00:30:00Z,-79.22,54.14,2,10.06,,-0.63,,, NC,, NC
CH4-3,2017-01-27T00:45:00Z,-79.22,54.14,2,10.15,,-0.63,,, NC,, NC
CH4-3,2017-01-27T01:00:00Z,-79.22,54.14,2,10.16,,-0.62,,, NC,, NC
CH4-3,2017-01-27T01:15:00Z,-79.22,54.14,2,9.98,,-0.62,,, NC,, NC
CH4-3,2017-01-27T01:30:00Z,-79.22,54.14,2,9.84,,-0.61,,, NC,, NC
CH4-3,2017-01-27T01:45:00Z,-79.22,54.14,2,9.77,,-0.61,,, NC,, NC
CH4-3,2017-01-27T02:00:00Z,-79.22,54.14,2,9.72,,-0.61,,, NC,, NC
CH4-3,2017-01-27T02:15:00Z,-79.22,54.14,2,9.71,,-0.61,,, NC,, NC
CH4-3,2017-01-27T02:30:00Z,-79.22,54.14,2,9.55,,-0.61,,, NC,, NC
CH4-3,2017-01-27T02:45:00Z,-79.22,54.14,2,9.50,,-0.59,,, NC,, NC
CH4-3,2017-01-27T03:00:00Z,-79.22,54.14,2,9.54,,-0.61,,, NC,, NC
CH4-3,2017-01-27T03:15:00Z,-79.22,54.14,2,9.56,,-0.61,,, NC,, NC
CH4-3,2017-01-27T03:30:00Z,-79.22,54.14,2,9.56,,-0.61,,, NC,, NC
CH4-3,2017-01-27T03:45:00Z,-79.22,54.14,2,9.60,,-0.61,,, NC,, NC
CH4-3,2017-01-27T04:00:00Z,-79.22,54.14,2,9.56,,-0.59,,, NC,, NC
CH4-3,2017-01-27T04:15:00Z,-79.22,54.14,2,9.55,,-0.59,,, NC,, NC
CH4-3,2017-01-27T04:30:00Z,-79.22,54.14,2,9.56,,-0.61,,, NC,, NC
CH4-3,2017-01-27T04:45:00Z,-79.22,54.14,2,9.83,,-0.62,,, NC,, NC
CH4-3,2017-01-27T05:00:00Z,-79.22,54.14,2,9.91,,-0.61,,, NC,, NC
CH4-3,2017-01-27T05:15:00Z,-79.22,54.14,2,9.81,,-0.62,,, NC,, NC
CH4-3,2017-01-27T05:30:00Z,-79.22,54.14,2,9.77,,-0.61,,, NC,, NC
CH4-3,2017-01-27T05:45:00Z,-79.22,54.14,2,9.76,,-0.61,,, NC,, NC
CH4-3,2017-01-27T06:00:00Z,-79.22,54.14,2,9.75,,-0.61,,, NC,, NC
CH4-3,2017-01-27T06:15:00Z,-79.22,54.14,2,9.76,,-0.62,,, NC,, NC
CH4-3,2017-01-27T06:30:00Z,-79.22,54.14,2,9.94,,-0.62,,, NC,, NC
CH4-3,2017-01-27T06:45:00Z,-79.22,54.14,2,10.06,,-0.63,,, NC,, NC
CH4-3,2017-01-27T07:00:00Z,-79.22,54.14,2,10.35,,-0.63,,, NC,, NC
CH4-3,2017-01-27T07:15:00Z,-79.22,54.14,2,10.42,,-0.63,,, NC,, NC
CH4-3,2017-01-27T07:30:00Z,-79.22,54.14,2,10.38,,-0.63,,, NC,, NC
CH4-3,2017-01-27T07:45:00Z,-79.22,54.14,2,10.43,,-0.64,,, NC,, NC
CH4-3,2017-01-27T08:00:00Z,-79.22,54.14,2,10.43,,-0.63,,, NC,, NC
CH4-3,2017-01-27T08:15:00Z,-79.22,54.14,2,10.43,,-0.64,,, NC,, NC
CH4-3,2017-01-27T08:30:00Z,-79.22,54.14,2,10.46,,-0.64,,, NC,, NC
CH4-3,2017-01-27T08:45:00Z,-79.22,54.14,2,10.52,,-0.64,,, NC,, NC
CH4-3,2017-01-27T09:00:00Z,-79.22,54.14,2,10.54,,-0.64,,, NC,, NC
CH4-3,2017-01-27T09:15:00Z,-79.22,54.14,2,10.40,,-0.64,,, NC,, NC
CH4-3,2017-01-27T09:30:00Z,-79.22,54.14,2,10.30,,-0.63,,, NC,, NC
CH4-3,2017-01-27T09:45:00Z,-79.22,54.14,2,10.40,,-0.63,,, NC,, NC
CH4-3,2017-01-27T10:00:00Z,-79.22,54.14,2,10.46,,-0.64,,, NC,, NC
CH4-3,2017-01-27T10:15:00Z,-79.22,54.14,2,10.45,,-0.63,,, NC,, NC
CH4-3,2017-01-27T10:30:00Z,-79.22,54.14,2,10.71,,-0.64,,, NC,, NC
CH4-3,2017-01-27T10:45:00Z,-79.22,54.14,2,10.66,,-0.64,,, NC,, NC
CH4-3,2017-01-27T11:00:00Z,-79.22,54.14,2,10.90,,-0.65,,, NC,, NC
CH4-3,2017-01-27T11:15:00Z,-79.22,54.14,2,10.94,,-0.65,,, NC,, NC
CH4-3,2017-01-27T11:30:00Z,-79.22,54.14,2,10.69,,-0.64,,, NC,, NC
CH4-3,2017-01-27T11:45:00Z,-79.22,54.14,2,10.56,,-0.63,,, NC,, NC
CH4-3,2017-01-27T12:00:00Z,-79.22,54.14,2,9.60,,-0.59,,, NC,, NC
CH4-3,2017-01-27T12:15:00Z,-79.22,54.14,2,10.14,,-0.62,,, NC,, NC
CH4-3,2017-01-27T12:30:00Z,-79.22,54.14,2,9.58,,-0.61,,, NC,, NC
CH4-3,2017-01-27T12:45:00Z,-79.22,54.14,2,9.59,,-0.61,,, NC,, NC
CH4-3,2017-01-27T13:00:00Z,-79.22,54.14,2,9.54,,-0.59,,, NC,, NC
CH4-3,2017-01-27T13:15:00Z,-79.22,54.14,2,9.55,,-0.59,,, NC,, NC
CH4-3,2017-01-27T13:30:00Z,-79.22,54.14,2,9.56,,-0.61,,, NC,, NC
CH4-3,2017-01-27T13:45:00Z,-79.22,54.14,2,9.57,,-0.61,,, NC,, NC
CH4-3,2017-01-27T14:00:00Z,-79.22,54.14,2,9.57,,-0.59,,, NC,, NC
CH4-3,2017-01-27T14:15:00Z,-79.22,54.14,2,9.79,,-0.61,,, NC,, NC
CH4-3,2017-01-27T14:30:00Z,-79.22,54.14,2,9.55,,-0.59,,, NC,, NC
CH4-3,2017-01-27T14:45:00Z,-79.22,54.14,2,9.56,,-0.61,,, NC,, NC
CH4-3,2017-01-27T15:00:00Z,-79.22,54.14,2,9.53,,-0.59,,, NC,, NC
CH4-3,2017-01-27T15:15:00Z,-79.22,54.14,2,9.54,,-0.59,,, NC,, NC
CH4-3,2017-01-27T15:30:00Z,-79.22,54.14,2,9.53,,-0.61,,, NC,, NC
CH4-3,2017-01-27T15:45:00Z,-79.22,54.14,2,9.56,,-0.59,,, NC,, NC
CH4-3,2017-01-27T16:00:00Z,-79.22,54.14,2,9.52,,-0.61,,, NC,, NC
CH4-3,2017-01-27T16:15:00Z,-79.22,54.14,2,9.54,,-0.61,,, NC,, NC
CH4-3,2017-01-27T16:30:00Z,-79.22,54.14,2,9.53,,-0.59,,, NC,, NC
CH4-3,2017-01-27T16:45:00Z,-79.22,54.14,2,9.54,,-0.61,,, NC,, NC
CH4-3,2017-01-27T17:00:00Z,-79.22,54.14,2,9.69,,-0.61,,, NC,, NC
CH4-3,2017-01-27T17:15:00Z,-79.22,54.14,2,9.76,,-0.61,,, NC,, NC
CH4-3,2017-01-27T17:30:00Z,-79.22,54.14,2,9.70,,-0.61,,, NC,, NC
CH4-3,2017-01-27T17:45:00Z,-79.22,54.14,2,9.58,,-0.59,,, NC,, NC
CH4-3,2017-01-27T18:00:00Z,-79.22,54.14,2,9.63,,-0.61,,, NC,, NC
CH4-3,2017-01-27T18:15:00Z,-79.22,54.14,2,9.70,,-0.61,,, NC,, NC
CH4-3,2017-01-27T18:30:00Z,-79.22,54.14,2,9.69,,-0.61,,, NC,, NC
CH4-3,2017-01-27T18:45:00Z,-79.22,54.14,2,9.71,,-0.61,,, NC,, NC
CH4-3,2017-01-27T19:00:00Z,-79.22,54.14,2,9.85,,-0.62,,, NC,, NC
CH4-3,2017-01-27T19:15:00Z,-79.22,54.14,2,10.02,,-0.62,,, NC,, NC
CH4-3,2017-01-27T19:30:00Z,-79.22,54.14,2,9.99,,-0.62,,, NC,, NC
CH4-3,2017-01-27T19:45:00Z,-79.22,54.14,2,10.11,,-0.62,,, NC,, NC
CH4-3,2017-01-27T20:00:00Z,-79.22,54.14,2,10.42,,-0.63,,, NC,, NC
CH4-3,2017-01-27T20:15:00Z,-79.22,54.14,2,10.50,,-0.64,,, NC,, NC
CH4-3,2017-01-27T20:30:00Z,-79.22,54.14,2,10.54,,-0.64,,, NC,, NC
CH4-3,2017-01-27T20:45:00Z,-79.22,54.14,2,10.56,,-0.65,,, NC,, NC
CH4-3,2017-01-27T21:00:00Z,-79.22,54.14,2,10.48,,-0.64,,, NC,, NC
CH4-3,2017-01-27T21:15:00Z,-79.22,54.14,2,10.53,,-0.64,,, NC,, NC
CH4-3,2017-01-27T21:30:00Z,-79.22,54.14,2,10.55,,-0.64,,, NC,, NC
CH4-3,2017-01-27T21:45:00Z,-79.22,54.14,2,10.63,,-0.65,,, NC,, NC
CH4-3,2017-01-27T22:00:00Z,-79.22,54.14,2,10.60,,-0.64,,, NC,, NC
CH4-3,2017-01-27T22:15:00Z,-79.22,54.14,2,10.22,,-0.63,,, NC,, NC
CH4-3,2017-01-27T22:30:00Z,-79.22,54.14,2,10.29,,-0.63,,, NC,, NC
CH4-3,2017-01-27T22:45:00Z,-79.22,54.14,2,10.66,,-0.64,,, NC,, NC
CH4-3,2017-01-27T23:00:00Z,-79.22,54.14,2,10.53,,-0.64,,, NC,, NC
CH4-3,2017-01-27T23:15:00Z,-79.22,54.14,2,10.66,,-0.63,,, NC,, NC
CH4-3,2017-01-27T23:30:00Z,-79.22,54.14,2,10.71,,-0.64,,, NC,, NC
CH4-3,2017-01-27T23:45:00Z,-79.22,54.14,2,10.71,,-0.64,,, NC,, NC
CH4-3,2017-01-28T00:00:00Z,-79.22,54.14,2,9.66,,-0.61,,, NC,, NC
CH4-3,2017-01-28T00:15:00Z,-79.22,54.14,2,9.77,,-0.61,,, NC,, NC
CH4-3,2017-01-28T00:30:00Z,-79.22,54.14,2,9.66,,-0.61,,, NC,, NC
CH4-3,2017-01-28T00:45:00Z,-79.22,54.14,2,9.70,,-0.61,,, NC,, NC
CH4-3,2017-01-28T01:00:00Z,-79.22,54.14,2,9.57,,-0.61,,, NC,, NC
CH4-3,2017-01-28T01:15:00Z,-79.22,54.14,2,9.55,,-0.61,,, NC,, NC
CH4-3,2017-01-28T01:30:00Z,-79.22,54.14,2,9.56,,-0.61,,, NC,, NC
CH4-3,2017-01-28T01:45:00Z,-79.22,54.14,2,9.57,,-0.59,,, NC,, NC
CH4-3,2017-01-28T02:00:00Z,-79.22,54.14,2,9.56,,-0.59,,, NC,, NC
CH4-3,2017-01-28T02:15:00Z,-79.22,54.14,2,9.64,,-0.59,,, NC,, NC
CH4-3,2017-01-28T02:30:00Z,-79.22,54.14,2,9.58,,-0.59,,, NC,, NC
CH4-3,2017-01-28T02:45:00Z,-79.22,54.14,2,9.57,,-0.61,,, NC,, NC
CH4-3,2017-01-28T03:00:00Z,-79.22,54.14,2,9.56,,-0.59,,, NC,, NC
CH4-3,2017-01-28T03:15:00Z,-79.22,54.14,2,9.57,,-0.61,,, NC,, NC
CH4-3,2017-01-28T03:30:00Z,-79.22,54.14,2,9.57,,-0.61,,, NC,, NC
CH4-3,2017-01-28T03:45:00Z,-79.22,54.14,2,9.57,,-0.59,,, NC,, NC
CH4-3,2017-01-28T04:00:00Z,-79.22,54.14,2,9.56,,-0.59,,, NC,, NC
CH4-3,2017-01-28T04:15:00Z,-79.22,54.14,2,9.56,,-0.59,,, NC,, NC
CH4-3,2017-01-28T04:30:00Z,-79.22,54.14,2,9.54,,-0.59,,, NC,, NC
CH4-3,2017-01-28T04:45:00Z,-79.22,54.14,2,9.53,,-0.59,,, NC,, NC
CH4-3,2017-01-28T05:00:00Z,-79.22,54.14,2,9.79,,-0.62,,, NC,, NC
CH4-3,2017-01-28T05:15:00Z,-79.22,54.14,2,9.57,,-0.61,,, NC,, NC
CH4-3,2017-01-28T05:30:00Z,-79.22,54.14,2,9.82,,-0.62,,, NC,, NC
CH4-3,2017-01-28T05:45:00Z,-79.22,54.14,2,9.71,,-0.61,,, NC,, NC
CH4-3,2017-01-28T06:00:00Z,-79.22,54.14,2,9.72,,-0.61,,, NC,, NC
CH4-3,2017-01-28T06:15:00Z,-79.22,54.14,2,9.69,,-0.61,,, NC,, NC
CH4-3,2017-01-28T06:30:00Z,-79.22,54.14,2,9.75,,-0.61,,, NC,, NC
CH4-3,2017-01-28T06:45:00Z,-79.22,54.14,2,10.01,,-0.61,,, NC,, NC
CH4-3,2017-01-28T07:00:00Z,-79.22,54.14,2,10.16,,-0.62,,, NC,, NC
CH4-3,2017-01-28T07:15:00Z,-79.22,54.14,2,10.13,,-0.63,,, NC,, NC
CH4-3,2017-01-28T07:30:00Z,-79.22,54.14,2,10.20,,-0.62,,, NC,, NC
CH4-3,2017-01-28T07:45:00Z,-79.22,54.14,2,10.26,,-0.62,,, NC,, NC
CH4-3,2017-01-28T08:00:00Z,-79.22,54.14,2,10.26,,-0.63,,, NC,, NC
CH4-3,2017-01-28T08:15:00Z,-79.22,54.14,2,10.09,,-0.62,,, NC,, NC
CH4-3,2017-01-28T08:30:00Z,-79.22,54.14,2,10.34,,-0.63,,, NC,, NC
CH4-3,2017-01-28T08:45:00Z,-79.22,54.14,2,10.38,,-0.63,,, NC,, NC
CH4-3,2017-01-28T09:00:00Z,-79.22,54.14,2,10.41,,-0.63,,, NC,, NC
CH4-3,2017-01-28T09:15:00Z,-79.22,54.14,2,10.36,,-0.63,,, NC,, NC
CH4-3,2017-01-28T09:30:00Z,-79.22,54.14,2,10.33,,-0.63,,, NC,, NC
CH4-3,2017-01-28T09:45:00Z,-79.22,54.14,2,10.39,,-0.63,,, NC,, NC
CH4-3,2017-01-28T10:00:00Z,-79.22,54.14,2,10.51,,-0.64,,, NC,, NC
CH4-3,2017-01-28T10:15:00Z,-79.22,54.14,2,10.54,,-0.64,,, NC,, NC
CH4-3,2017-01-28T10:30:00Z,-79.22,54.14,2,10.46,,-0.63,,, NC,, NC
CH4-3,2017-01-28T10:45:00Z,-79.22,54.14,2,10.55,,-0.64,,, NC,, NC
CH4-3,2017-01-28T11:00:00Z,-79.22,54.14,2,10.66,,-0.64,,, NC,, NC
CH4-3,2017-01-28T11:15:00Z,-79.22,54.14,2,10.60,,-0.64,,, NC,, NC
CH4-3,2017-01-28T11:30:00Z,-79.22,54.14,2,10.90,,-0.64,,, NC,, NC
CH4-3,2017-01-28T11:45:00Z,-79.22,54.14,2,10.79,,-0.65,,, NC,, NC
CH4-3,2017-01-28T12:00:00Z,-79.22,54.14,2,10.72,,-0.63,,, NC,, NC
CH4-3,2017-01-28T12:15:00Z,-79.22,54.14,2,10.11,,-0.62,,, NC,, NC
CH4-3,2017-01-28T12:30:00Z,-79.22,54.14,2,9.78,,-0.61,,, NC,, NC
CH4-3,2017-01-28T12:45:00Z,-79.22,54.14,2,9.62,,-0.59,,, NC,, NC
CH4-3,2017-01-28T13:00:00Z,-79.22,54.14,2,9.54,,-0.59,,, NC,, NC
CH4-3,2017-01-28T13:15:00Z,-79.22,54.14,2,9.64,,-0.59,,, NC,, NC
CH4-3,2017-01-28T13:30:00Z,-79.22,54.14,2,9.52,,-0.59,,, NC,, NC
CH4-3,2017-01-28T13:45:00Z,-79.22,54.14,2,9.54,,-0.59,,, NC,, NC
CH4-3,2017-01-28T14:00:00Z,-79.22,54.14,2,9.56,,-0.59,,, NC,, NC
CH4-3,2017-01-28T14:15:00Z,-79.22,54.14,2,9.53,,-0.59,,, NC,, NC
CH4-3,2017-01-28T14:30:00Z,-79.22,54.14,2,9.51,,-0.59,,, NC,, NC
CH4-3,2017-01-28T14:45:00Z,-79.22,54.14,2,9.57,,-0.61,,, NC,, NC
CH4-3,2017-01-28T15:00:00Z,-79.22,54.14,2,9.93,,-0.61,,, NC,, NC
CH4-3,2017-01-28T15:15:00Z,-79.22,54.14,2,9.62,,-0.59,,, NC,, NC
CH4-3,2017-01-28T15:30:00Z,-79.22,54.14,2,9.69,,-0.61,,, NC,, NC
CH4-3,2017-01-28T15:45:00Z,-79.22,54.14,2,9.87,,-0.61,,, NC,, NC
CH4-3,2017-01-28T16:00:00Z,-79.22,54.14,2,9.53,,-0.59,,, NC,, NC
CH4-3,2017-01-28T16:15:00Z,-79.22,54.14,2,9.58,,-0.61,,, NC,, NC
CH4-3,2017-01-28T16:30:00Z,-79.22,54.14,2,9.54,,-0.59,,, NC,, NC
CH4-3,2017-01-28T16:45:00Z,-79.22,54.14,2,9.48,,-0.59,,, NC,, NC
CH4-3,2017-01-28T17:00:00Z,-79.22,54.14,2,9.46,,-0.59,,, NC,, NC
CH4-3,2017-01-28T17:15:00Z,-79.22,54.14,2,9.52,,-0.61,,, NC,, NC
CH4-3,2017-01-28T17:30:00Z,-79.22,54.14,2,9.67,,-0.59,,, NC,, NC
CH4-3,2017-01-28T17:45:00Z,-79.22,54.14,2,9.71,,-0.61,,, NC,, NC
CH4-3,2017-01-28T18:00:00Z,-79.22,54.14,2,10.31,,-0.63,,, NC,, NC
CH4-3,2017-01-28T18:15:00Z,-79.22,54.14,2,9.94,,-0.62,,, NC,, NC
CH4-3,2017-01-28T18:30:00Z,-79.22,54.14,2,9.84,,-0.61,,, NC,, NC
CH4-3,2017-01-28T18:45:00Z,-79.22,54.14,2,10.11,,-0.62,,, NC,, NC
CH4-3,2017-01-28T19:00:00Z,-79.22,54.14,2,10.16,,-0.62,,, NC,, NC
CH4-3,2017-01-28T19:15:00Z,-79.22,54.14,2,10.08,,-0.63,,, NC,, NC
CH4-3,2017-01-28T19:30:00Z,-79.22,54.14,2,10.16,,-0.62,,, NC,, NC
CH4-3,2017-01-28T19:45:00Z,-79.22,54.14,2,10.23,,-0.62,,, NC,, NC
CH4-3,2017-01-28T20:00:00Z,-79.22,54.14,2,10.17,,-0.63,,, NC,, NC
CH4-3,2017-01-28T20:15:00Z,-79.22,54.14,2,9.90,,-0.61,,, NC,, NC
CH4-3,2017-01-28T20:30:00Z,-79.22,54.14,2,10.13,,-0.62,,, NC,, NC
CH4-3,2017-01-28T20:45:00Z,-79.22,54.14,2,10.36,,-0.64,,, NC,, NC
CH4-3,2017-01-28T21:00:00Z,-79.22,54.14,2,10.40,,-0.64,,, NC,, NC
CH4-3,2017-01-28T21:15:00Z,-79.22,54.14,2,10.44,,-0.64,,, NC,, NC
CH4-3,2017-01-28T21:30:00Z,-79.22,54.14,2,10.39,,-0.63,,, NC,, NC
CH4-3,2017-01-28T21:45:00Z,-79.22,54.14,2,10.39,,-0.63,,, NC,, NC
CH4-3,2017-01-28T22:00:00Z,-79.22,54.14,2,10.55,,-0.64,,, NC,, NC
CH4-3,2017-01-28T22:15:00Z,-79.22,54.14,2,10.65,,-0.65,,, NC,, NC
CH4-3,2017-01-28T22:30:00Z,-79.22,54.14,2,10.70,,-0.64,,, NC,, NC
CH4-3,2017-01-28T22:45:00Z,-79.22,54.14,2,10.81,,-0.65,,, NC,, NC
CH4-3,2017-01-28T23:00:00Z,-79.22,54.14,2,10.87,,-0.66,,, NC,, NC
CH4-3,2017-01-28T23:15:00Z,-79.22,54.14,2,10.47,,-0.64,,, NC,, NC
CH4-3,2017-01-28T23:30:00Z,-79.22,54.14,2,10.55,,-0.64,,, NC,, NC
CH4-3,2017-01-28T23:45:00Z,-79.22,54.14,2,10.46,,-0.64,,, NC,, NC
CH4-3,2017-01-29T00:00:00Z,-79.22,54.14,2,10.53,,-0.64,,, NC,, NC
CH4-3,2017-01-29T00:15:00Z,-79.22,54.14,2,10.72,,-0.64,,, NC,, NC
CH4-3,2017-01-29T00:30:00Z,-79.22,54.14,2,10.92,,-0.66,,, NC,, NC
CH4-3,2017-01-29T00:45:00Z,-79.22,54.14,2,10.63,,-0.64,,, NC,, NC
CH4-3,2017-01-29T01:00:00Z,-79.22,54.14,2,10.97,,-0.65,,, NC,, NC
CH4-3,2017-01-29T01:15:00Z,-79.22,54.14,2,10.57,,-0.63,,, NC,, NC
CH4-3,2017-01-29T01:30:00Z,-79.22,54.14,2,9.54,,-0.59,,, NC,, NC
CH4-3,2017-01-29T01:45:00Z,-79.22,54.14,2,9.58,,-0.61,,, NC,, NC
CH4-3,2017-01-29T02:00:00Z,-79.22,54.14,2,9.53,,-0.59,,, NC,, NC
CH4-3,2017-01-29T02:15:00Z,-79.22,54.14,2,9.55,,-0.59,,, NC,, NC
CH4-3,2017-01-29T02:30:00Z,-79.22,54.14,2,9.54,,-0.59,,, NC,, NC
CH4-3,2017-01-29T02:45:00Z,-79.22,54.14,2,9.58,,-0.59,,, NC,, NC
CH4-3,2017-01-29T03:00:00Z,-79.22,54.14,2,9.52,,-0.59,,, NC,, NC
CH4-3,2017-01-29T03:15:00Z,-79.22,54.14,2,10.67,,-0.63,,, NC,, NC
CH4-3,2017-01-29T03:30:00Z,-79.22,54.14,2,9.96,,-0.61,,, NC,, NC
CH4-3,2017-01-29T03:45:00Z,-79.22,54.14,2,9.59,,-0.59,,, NC,, NC
CH4-3,2017-01-29T04:00:00Z,-79.22,54.14,2,9.60,,-0.59,,, NC,, NC
CH4-3,2017-01-29T04:15:00Z,-79.22,54.14,2,9.63,,-0.59,,, NC,, NC
CH4-3,2017-01-29T04:30:00Z,-79.22,54.14,2,10.84,,-0.65,,, NC,, NC
CH4-3,2017-01-29T04:45:00Z,-79.22,54.14,2,9.59,,-0.61,,, NC,, NC
CH4-3,2017-01-29T05:00:00Z,-79.22,54.14,2,9.52,,-0.59,,, NC,, NC
CH4-3,2017-01-29T05:15:00Z,-79.22,54.14,2,9.54,,-0.61,,, NC,, NC
CH4-3,2017-01-29T05:30:00Z,-79.22,54.14,2,9.56,,-0.59,,, NC,, NC
CH4-3,2017-01-29T05:45:00Z,-79.22,54.14,2,9.63,,-0.59,,, NC,, NC
CH4-3,2017-01-29T06:00:00Z,-79.22,54.14,2,9.75,,-0.61,,, NC,, NC
CH4-3,2017-01-29T06:15:00Z,-79.22,54.14,2,10.30,,-0.63,,, NC,, NC
CH4-3,2017-01-29T06:30:00Z,-79.22,54.14,2,10.59,,-0.64,,, NC,, NC
CH4-3,2017-01-29T06:45:00Z,-79.22,54.14,2,10.09,,-0.62,,, NC,, NC
CH4-3,2017-01-29T07:00:00Z,-79.22,54.14,2,10.20,,-0.62,,, NC,, NC
CH4-3,2017-01-29T07:15:00Z,-79.22,54.14,2,10.19,,-0.62,,, NC,, NC
CH4-3,2017-01-29T07:30:00Z,-79.22,54.14,2,10.41,,-0.64,,, NC,, NC
CH4-3,2017-01-29T07:45:00Z,-79.22,54.14,2,10.42,,-0.64,,, NC,, NC
CH4-3,2017-01-29T08:00:00Z,-79.22,54.14,2,10.47,,-0.64,,, NC,, NC
CH4-3,2017-01-29T08:15:00Z,-79.22,54.14,2,10.50,,-0.64,,, NC,, NC
CH4-3,2017-01-29T08:30:00Z,-79.22,54.14,2,10.43,,-0.64,,, NC,, NC
CH4-3,2017-01-29T08:45:00Z,-79.22,54.14,2,10.44,,-0.64,,, NC,, NC
CH4-3,2017-01-29T09:00:00Z,-79.22,54.14,2,10.48,,-0.64,,, NC,, NC
CH4-3,2017-01-29T09:15:00Z,-79.22,54.14,2,10.49,,-0.64,,, NC,, NC
CH4-3,2017-01-29T09:30:00Z,-79.22,54.14,2,10.51,,-0.64,,, NC,, NC
CH4-3,2017-01-29T09:45:00Z,-79.22,54.14,2,10.53,,-0.64,,, NC,, NC
CH4-3,2017-01-29T10:00:00Z,-79.22,54.14,2,10.54,,-0.64,,, NC,, NC
CH4-3,2017-01-29T10:15:00Z,-79.22,54.14,2,10.58,,-0.64,,, NC,, NC
CH4-3,2017-01-29T10:30:00Z,-79.22,54.14,2,10.62,,-0.65,,, NC,, NC
CH4-3,2017-01-29T10:45:00Z,-79.22,54.14,2,10.66,,-0.65,,, NC,, NC
CH4-3,2017-01-29T11:00:00Z,-79.22,54.14,2,10.67,,-0.65,,, NC,, NC
CH4-3,2017-01-29T11:15:00Z,-79.22,54.14,2,10.74,,-0.65,,, NC,, NC
CH4-3,2017-01-29T11:30:00Z,-79.22,54.14,2,10.68,,-0.65,,, NC,, NC
CH4-3,2017-01-29T11:45:00Z,-79.22,54.14,2,10.71,,-0.66,,, NC,, NC
CH4-3,2017-01-29T12:00:00Z,-79.22,54.14,2,10.63,,-0.64,,, NC,, NC
CH4-3,2017-01-29T12:15:00Z,-79.22,54.14,2,10.74,,-0.64,,, NC,, NC
CH4-3,2017-01-29T12:30:00Z,-79.22,54.14,2,10.92,,-0.65,,, NC,, NC
CH4-3,2017-01-29T12:45:00Z,-79.22,54.14,2,11.07,,-0.66,,, NC,, NC
CH4-3,2017-01-29T13:00:00Z,-79.22,54.14,2,10.68,,-0.64,,, NC,, NC
CH4-3,2017-01-29T13:15:00Z,-79.22,54.14,2,9.86,,-0.61,,, NC,, NC
CH4-3,2017-01-29T13:30:00Z,-79.22,54.14,2,9.66,,-0.59,,, NC,, NC
CH4-3,2017-01-29T13:45:00Z,-79.22,54.14,2,9.65,,-0.61,,, NC,, NC
CH4-3,2017-01-29T14:00:00Z,-79.22,54.14,2,9.64,,-0.61,,, NC,, NC
CH4-3,2017-01-29T14:15:00Z,-79.22,54.14,2,9.63,,-0.59,,, NC,, NC
CH4-3,2017-01-29T14:30:00Z,-79.22,54.14,2,9.67,,-0.59,,, NC,, NC
CH4-3,2017-01-29T14:45:00Z,-79.22,54.14,2,9.65,,-0.61,,, NC,, NC
CH4-3,2017-01-29T15:00:00Z,-79.22,54.14,2,9.81,,-0.61,,, NC,, NC
CH4-3,2017-01-29T15:15:00Z,-79.22,54.14,2,9.63,,-0.59,,, NC,, NC
CH4-3,2017-01-29T15:30:00Z,-79.22,54.14,2,9.93,,-0.61,,, NC,, NC
CH4-3,2017-01-29T15:45:00Z,-79.22,54.14,2,9.88,,-0.61,,, NC,, NC
CH4-3,2017-01-29T16:00:00Z,-79.22,54.14,2,9.91,,-0.61,,, NC,, NC
CH4-3,2017-01-29T16:15:00Z,-79.22,54.14,2,10.07,,-0.62,,, NC,, NC
CH4-3,2017-01-29T16:30:00Z,-79.22,54.14,2,9.81,,-0.61,,, NC,, NC
CH4-3,2017-01-29T16:45:00Z,-79.22,54.14,2,9.78,,-0.61,,, NC,, NC
CH4-3,2017-01-29T17:00:00Z,-79.22,54.14,2,9.68,,-0.61,,, NC,, NC
CH4-3,2017-01-29T17:15:00Z,-79.22,54.14,2,9.79,,-0.62,,, NC,, NC
CH4-3,2017-01-29T17:30:00Z,-79.22,54.14,2,9.71,,-0.61,,, NC,, NC
CH4-3,2017-01-29T17:45:00Z,-79.22,54.14,2,9.80,,-0.62,,, NC,, NC
CH4-3,2017-01-29T18:00:00Z,-79.22,54.14,2,9.87,,-0.62,,, NC,, NC
CH4-3,2017-01-29T18:15:00Z,-79.22,54.14,2,10.65,,-0.64,,, NC,, NC
CH4-3,2017-01-29T18:30:00Z,-79.22,54.14,2,10.78,,-0.65,,, NC,, NC
CH4-3,2017-01-29T18:45:00Z,-79.22,54.14,2,10.58,,-0.64,,, NC,, NC
CH4-3,2017-01-29T19:00:00Z,-79.22,54.14,2,10.56,,-0.64,,, NC,, NC
CH4-3,2017-01-29T19:15:00Z,-79.22,54.14,2,10.62,,-0.65,,, NC,, NC
CH4-3,2017-01-29T19:30:00Z,-79.22,54.14,2,10.60,,-0.64,,, NC,, NC
CH4-3,2017-01-29T19:45:00Z,-79.22,54.14,2,10.55,,-0.64,,, NC,, NC
CH4-3,2017-01-29T20:00:00Z,-79.22,54.14,2,10.53,,-0.64,,, NC,, NC
CH4-3,2017-01-29T20:15:00Z,-79.22,54.14,2,10.52,,-0.64,,, NC,, NC
CH4-3,2017-01-29T20:30:00Z,-79.22,54.14,2,10.50,,-0.64,,, NC,, NC
CH4-3,2017-01-29T20:45:00Z,-79.22,54.14,2,10.46,,-0.64,,, NC,, NC
CH4-3,2017-01-29T21:00:00Z,-79.22,54.14,2,10.49,,-0.64,,, NC,, NC
CH4-3,2017-01-29T21:15:00Z,-79.22,54.14,2,10.50,,-0.64,,, NC,, NC
CH4-3,2017-01-29T21:30:00Z,-79.22,54.14,2,10.52,,-0.64,,, NC,, NC
CH4-3,2017-01-29T21:45:00Z,-79.22,54.14,2,10.55,,-0.64,,, NC,, NC
CH4-3,2017-01-29T22:00:00Z,-79.22,54.14,2,10.58,,-0.64,,, NC,, NC
CH4-3,2017-01-29T22:15:00Z,-79.22,54.14,2,10.59,,-0.64,,, NC,, NC
CH4-3,2017-01-29T22:30:00Z,-79.22,54.14,2,10.63,,-0.65,,, NC,, NC
CH4-3,2017-01-29T22:45:00Z,-79.22,54.14,2,10.68,,-0.65,,, NC,, NC
CH4-3,2017-01-29T23:00:00Z,-79.22,54.14,2,10.79,,-0.65,,, NC,, NC
CH4-3,2017-01-29T23:15:00Z,-79.22,54.14,2,10.86,,-0.65,,, NC,, NC
CH4-3,2017-01-29T23:30:00Z,-79.22,54.14,2,11.06,,-0.67,,, NC,, NC
CH4-3,2017-01-29T23:45:00Z,-79.22,54.14,2,11.15,,-0.68,,, NC,, NC
CH4-3,2017-01-30T00:00:00Z,-79.22,54.14,2,11.10,,-0.67,,, NC,, NC
CH4-3,2017-01-30T00:15:00Z,-79.22,54.14,2,11.09,,-0.66,,, NC,, NC
CH4-3,2017-01-30T00:30:00Z,-79.22,54.14,2,10.64,,-0.64,,, NC,, NC
CH4-3,2017-01-30T00:45:00Z,-79.22,54.14,2,10.87,,-0.65,,, NC,, NC
CH4-3,2017-01-30T01:00:00Z,-79.22,54.14,2,10.89,,-0.65,,, NC,, NC
CH4-3,2017-01-30T01:15:00Z,-79.22,54.14,2,11.01,,-0.65,,, NC,, NC
CH4-3,2017-01-30T01:30:00Z,-79.22,54.14,2,11.07,,-0.66,,, NC,, NC
CH4-3,2017-01-30T01:45:00Z,-79.22,54.14,2,11.16,,-0.67,,, NC,, NC
CH4-3,2017-01-30T02:00:00Z,-79.22,54.14,2,10.50,,-0.63,,, NC,, NC
CH4-3,2017-01-30T02:15:00Z,-79.22,54.14,2,10.48,,-0.63,,, NC,, NC
CH4-3,2017-01-30T02:30:00Z,-79.22,54.14,2,10.12,,-0.63,,, NC,, NC
CH4-3,2017-01-30T02:45:00Z,-79.22,54.14,2,10.15,,-0.62,,, NC,, NC
CH4-3,2017-01-30T03:00:00Z,-79.22,54.14,2,10.02,,-0.62,,, NC,, NC
CH4-3,2017-01-30T03:15:00Z,-79.22,54.14,2,10.08,,-0.62,,, NC,, NC
CH4-3,2017-01-30T03:30:00Z,-79.22,54.14,2,10.05,,-0.62,,, NC,, NC
CH4-3,2017-01-30T03:45:00Z,-79.22,54.14,2,9.91,,-0.62,,, NC,, NC
CH4-3,2017-01-30T04:00:00Z,-79.22,54.14,2,9.99,,-0.62,,, NC,, NC
CH4-3,2017-01-30T04:15:00Z,-79.22,54.14,2,10.04,,-0.62,,, NC,, NC
CH4-3,2017-01-30T04:30:00Z,-79.22,54.14,2,10.20,,-0.62,,, NC,, NC
CH4-3,2017-01-30T04:45:00Z,-79.22,54.14,2,9.99,,-0.62,,, NC,, NC
CH4-3,2017-01-30T05:00:00Z,-79.22,54.14,2,10.92,,-0.65,,, NC,, NC
CH4-3,2017-01-30T05:15:00Z,-79.22,54.14,2,10.02,,-0.62,,, NC,, NC
CH4-3,2017-01-30T05:30:00Z,-79.22,54.14,2,10.00,,-0.61,,, NC,, NC
CH4-3,2017-01-30T05:45:00Z,-79.22,54.14,2,10.20,,-0.63,,, NC,, NC
CH4-3,2017-01-30T06:00:00Z,-79.22,54.14,2,10.87,,-0.66,,, NC,, NC
CH4-3,2017-01-30T06:15:00Z,-79.22,54.14,2,10.48,,-0.64,,, NC,, NC
CH4-3,2017-01-30T06:30:00Z,-79.22,54.14,2,10.77,,-0.65,,, NC,, NC
CH4-3,2017-01-30T06:45:00Z,-79.22,54.14,2,10.89,,-0.65,,, NC,, NC
CH4-3,2017-01-30T07:00:00Z,-79.22,54.14,2,10.96,,-0.66,,, NC,, NC
CH4-3,2017-01-30T07:15:00Z,-79.22,54.14,2,10.82,,-0.65,,, NC,, NC
CH4-3,2017-01-30T07:30:00Z,-79.22,54.14,2,10.05,,-0.62,,, NC,, NC
CH4-3,2017-01-30T07:45:00Z,-79.22,54.14,2,10.74,,-0.65,,, NC,, NC
CH4-3,2017-01-30T08:00:00Z,-79.22,54.14,2,10.78,,-0.65,,, NC,, NC
CH4-3,2017-01-30T08:15:00Z,-79.22,54.14,2,10.78,,-0.66,,, NC,, NC
CH4-3,2017-01-30T08:30:00Z,-79.22,54.14,2,10.75,,-0.66,,, NC,, NC
CH4-3,2017-01-30T08:45:00Z,-79.22,54.14,2,10.71,,-0.65,,, NC,, NC
CH4-3,2017-01-30T09:00:00Z,-79.22,54.14,2,10.69,,-0.65,,, NC,, NC
CH4-3,2017-01-30T09:15:00Z,-79.22,54.14,2,10.69,,-0.64,,, NC,, NC
CH4-3,2017-01-30T09:30:00Z,-79.22,54.14,2,10.70,,-0.65,,, NC,, NC
CH4-3,2017-01-30T09:45:00Z,-79.22,54.14,2,10.70,,-0.65,,, NC,, NC
CH4-3,2017-01-30T10:00:00Z,-79.22,54.14,2,10.68,,-0.65,,, NC,, NC
CH4-3,2017-01-30T10:15:00Z,-79.22,54.14,2,10.70,,-0.65,,, NC,, NC
CH4-3,2017-01-30T10:30:00Z,-79.22,54.14,2,10.75,,-0.66,,, NC,, NC
CH4-3,2017-01-30T10:45:00Z,-79.22,54.14,2,10.78,,-0.65,,, NC,, NC
CH4-3,2017-01-30T11:00:00Z,-79.22,54.14,2,10.86,,-0.66,,, NC,, NC
CH4-3,2017-01-30T11:15:00Z,-79.22,54.14,2,10.98,,-0.66,,, NC,, NC
CH4-3,2017-01-30T11:30:00Z,-79.22,54.14,2,11.00,,-0.66,,, NC,, NC
CH4-3,2017-01-30T11:45:00Z,-79.22,54.14,2,10.94,,-0.66,,, NC,, NC
CH4-3,2017-01-30T12:00:00Z,-79.22,54.14,2,11.08,,-0.67,,, NC,, NC
CH4-3,2017-01-30T12:15:00Z,-79.22,54.14,2,11.09,,-0.67,,, NC,, NC
CH4-3,2017-01-30T12:30:00Z,-79.22,54.14,2,11.25,,-0.67,,, NC,, NC
CH4-3,2017-01-30T12:45:00Z,-79.22,54.14,2,11.04,,-0.66,,, NC,, NC
CH4-3,2017-01-30T13:00:00Z,-79.22,54.14,2,11.12,,-0.67,,, NC,, NC
CH4-3,2017-01-30T13:15:00Z,-79.22,54.14,2,11.16,,-0.67,,, NC,, NC
CH4-3,2017-01-30T13:30:00Z,-79.22,54.14,2,11.22,,-0.66,,, NC,, NC
CH4-3,2017-01-30T13:45:00Z,-79.22,54.14,2,11.38,,-0.68,,, NC,, NC
CH4-3,2017-01-30T14:00:00Z,-79.22,54.14,2,11.38,,-0.67,,, NC,, NC
CH4-3,2017-01-30T14:15:00Z,-79.22,54.14,2,11.12,,-0.65,,, NC,, NC
CH4-3,2017-01-30T14:30:00Z,-79.22,54.14,2,10.58,,-0.64,,, NC,, NC